| time (UTC) | temp F | wind direction | speed knots | gust knots | rain 1hr in | rain 24hr in | rain mn in | humidity % | barometer mb |
| 20260507060330 | 52 | 282 | 0.0 | 1.7 | 0.00 | 0.23 | 0.01 | 87 | 1007.3 |
| 20260507054827 | 52 | 228 | 0.0 | 1.7 | 0.00 | 0.23 | 0.01 | 87 | 1007.5 |
| 20260507053323 | 52 | 299 | 0.9 | 4.3 | 0.00 | 0.23 | 0.01 | 86 | 1008.0 |
| 20260507051837 | 53 | 285 | 1.7 | 4.3 | 0.00 | 0.23 | 0.01 | 87 | 1007.9 |
| 20260507050352 | 53 | 270 | 0.9 | 2.6 | 0.01 | 0.23 | 0.01 | 88 | 1008.1 |
| 20260507044822 | 53 | 272 | 0.0 | 3.5 | 0.01 | 0.23 | 0.01 | 89 | 1007.7 |
| 20260507043338 | 54 | 279 | 2.6 | 6.1 | 0.03 | 0.23 | 0.01 | 90 | 1007.7 |
| 20260507041828 | 55 | 240 | 0.9 | 3.5 | 0.02 | 0.22 | 0.01 | 92 | 1007.7 |
| 20260507040326 | 56 | 274 | 0.9 | 2.6 | 0.02 | 0.22 | 0.00 | 92 | 1007.8 |
| 20260507034822 | 57 | 276 | 1.7 | 3.5 | 0.02 | 0.22 | 0.22 | 89 | 1007.6 |
| 20260507033323 | 58 | 82 | 0.9 | 4.3 | 0.00 | 0.20 | 0.20 | 91 | 1007.1 |
| 20260507031847 | 58 | 347 | 1.7 | 7.8 | 0.00 | 0.20 | 0.20 | 93 | 1007.0 |
| 20260507030322 | 59 | 328 | 0.9 | 3.5 | 0.00 | 0.20 | 0.20 | 96 | 1006.5 |
| 20260507024839 | 60 | 293 | 0.9 | 2.6 | 0.00 | 0.20 | 0.20 | 96 | 1006.8 |
| 20260507023328 | 60 | 239 | 0.9 | 5.2 | 0.00 | 0.20 | 0.20 | 96 | 1006.6 |
| 20260507021823 | 60 | 236 | 1.7 | 2.6 | 0.00 | 0.20 | 0.20 | 95 | 1006.6 |
| 20260507020327 | 60 | 156 | 0.0 | 3.5 | 0.00 | 0.20 | 0.20 | 95 | 1006.1 |
| 20260507014823 | 60 | 207 | 0.9 | 4.3 | 0.00 | 0.20 | 0.20 | 95 | 1006.3 |
| 20260507013355 | 60 | 254 | 1.7 | 4.3 | 0.00 | 0.20 | 0.20 | 95 | 1006.5 |
| 20260507011848 | 60 | 209 | 2.6 | 4.3 | 0.00 | 0.20 | 0.20 | 95 | 1006.5 |
| 20260507010340 | 60 | 155 | 1.7 | 5.2 | 0.00 | 0.20 | 0.20 | 95 | 1006.4 |
| 20260507004827 | 60 | 160 | 1.7 | 6.1 | 0.00 | 0.20 | 0.20 | 95 | 1006.4 |
| 20260507003325 | 60 | 214 | 2.6 | 6.1 | 0.00 | 0.20 | 0.20 | 95 | 1006.2 |
| 20260507001830 | 60 | 181 | 1.7 | 5.2 | 0.00 | 0.20 | 0.20 | 95 | 1006.1 |
| 20260507000325 | 60 | 174 | 3.5 | 7.8 | 0.01 | 0.20 | 0.20 | 95 | 1006.2 |
| 20260506234832 | 60 | 205 | 2.6 | 7.0 | 0.03 | 0.20 | 0.20 | 95 | 1006.2 |
| 20260506233325 | 60 | 157 | 1.7 | 5.2 | 0.05 | 0.20 | 0.20 | 95 | 1005.9 |
| 20260506231829 | 60 | 216 | 2.6 | 6.1 | 0.07 | 0.20 | 0.20 | 95 | 1006.0 |
| 20260506230357 | 60 | 219 | 1.7 | 6.1 | 0.07 | 0.19 | 0.19 | 95 | 1006.2 |
| 20260506224823 | 60 | 189 | 2.6 | 6.1 | 0.06 | 0.17 | 0.17 | 94 | 1006.3 |
| 20260506223329 | 60 | 146 | 1.7 | 7.0 | 0.06 | 0.15 | 0.15 | 94 | 1006.3 |
| 20260506221823 | 60 | 196 | 2.6 | 9.6 | 0.04 | 0.13 | 0.13 | 93 | 1006.3 |
| 20260506220328 | 60 | 191 | 2.6 | 8.7 | 0.03 | 0.12 | 0.12 | 93 | 1006.4 |
| 20260506214823 | 61 | 149 | 3.5 | 7.8 | 0.02 | 0.11 | 0.11 | 92 | 1006.5 |
| 20260506213317 | 61 | 69 | 3.5 | 7.8 | 0.01 | 0.09 | 0.09 | 92 | 1006.4 |
| 20260506211854 | 61 | 114 | 4.3 | 8.7 | 0.02 | 0.09 | 0.09 | 92 | 1006.6 |
| 20260506210331 | 61 | 188 | 2.6 | 10.4 | 0.04 | 0.09 | 0.09 | 92 | 1006.8 |
| 20260506204823 | 61 | 179 | 4.3 | 11.3 | 0.04 | 0.09 | 0.09 | 91 | 1007.0 |
| 20260506203329 | 62 | 182 | 4.3 | 10.4 | 0.02 | 0.07 | 0.07 | 91 | 1007.1 |
| 20260506201823 | 62 | 146 | 3.5 | 7.0 | 0.02 | 0.07 | 0.07 | 90 | 1007.1 |
| 20260506200346 | 63 | 216 | 2.6 | 7.8 | 0.01 | 0.05 | 0.05 | 88 | 1007.0 |
| 20260506194829 | 63 | 232 | 2.6 | 7.8 | 0.02 | 0.05 | 0.05 | 88 | 1007.0 |
| 20260506193326 | 64 | 207 | 1.7 | 8.7 | 0.04 | 0.05 | 0.05 | 88 | 1007.0 |
| 20260506191822 | 64 | 204 | 1.7 | 7.8 | 0.05 | 0.05 | 0.05 | 87 | 1007.1 |
| 20260506190329 | 64 | 233 | 0.9 | 3.5 | 0.04 | 0.04 | 0.04 | 88 | 1007.0 |
| 20260506184824 | 65 | 188 | 1.7 | 7.8 | 0.03 | 0.03 | 0.03 | 85 | 1007.3 |
| 20260506183329 | 66 | 245 | 0.9 | 5.2 | 0.01 | 0.01 | 0.01 | 81 | 1007.3 |
| 20260506181822 | 69 | 13 | 2.6 | 12.2 | 0.00 | 0.00 | 0.00 | 71 | 1007.5 |
| 20260506180329 | 71 | 136 | 4.3 | 19.1 | 0.00 | 0.00 | 0.00 | 66 | 1007.5 |
| 20260506174824 | 72 | 216 | 6.1 | 15.6 | 0.00 | 0.00 | 0.00 | 61 | 1007.5 |
| 20260506173327 | 72 | 209 | 10.4 | 19.1 | 0.00 | 0.00 | 0.00 | 59 | 1007.5 |
| 20260506171822 | 73 | 198 | 5.2 | 11.3 | 0.00 | 0.00 | 0.00 | 58 | 1007.2 |
| 20260506170336 | 74 | 195 | 6.1 | 16.5 | 0.00 | 0.00 | 0.00 | 59 | 1007.3 |
| 20260506164845 | 73 | 239 | 6.1 | 14.8 | 0.00 | 0.00 | 0.00 | 60 | 1007.7 |
| 20260506163319 | 72 | 255 | 7.0 | 13.9 | 0.00 | 0.00 | 0.00 | 61 | 1007.8 |
| 20260506161824 | 71 | 225 | 5.2 | 13.0 | 0.00 | 0.00 | 0.00 | 63 | 1008.0 |
| 20260506160335 | 71 | 181 | 3.5 | 17.4 | 0.00 | 0.00 | 0.00 | 65 | 1008.3 |
| 20260506154844 | 70 | 203 | 2.6 | 10.4 | 0.00 | 0.00 | 0.00 | 66 | 1008.7 |
| 20260506153327 | 70 | 215 | 2.6 | 12.2 | 0.00 | 0.00 | 0.00 | 67 | 1008.8 |
| 20260506151841 | 70 | 181 | 4.3 | 10.4 | 0.00 | 0.00 | 0.00 | 67 | 1009.1 |
| 20260506150352 | 70 | 200 | 7.0 | 13.0 | 0.00 | 0.00 | 0.00 | 67 | 1009.2 |
| 20260506144846 | 69 | 224 | 4.3 | 13.0 | 0.00 | 0.00 | 0.00 | 68 | 1009.4 |
| 20260506143329 | 69 | 208 | 4.3 | 12.2 | 0.00 | 0.00 | 0.00 | 68 | 1009.2 |
| 20260506141824 | 69 | 204 | 4.3 | 11.3 | 0.00 | 0.00 | 0.00 | 70 | 1009.2 |
| 20260506140326 | 68 | 37 | 6.1 | 13.9 | 0.00 | 0.00 | 0.00 | 71 | 1008.9 |
| 20260506134823 | 68 | 217 | 3.5 | 10.4 | 0.00 | 0.00 | 0.00 | 73 | 1009.1 |
| 20260506133318 | 67 | 170 | 4.3 | 10.4 | 0.00 | 0.00 | 0.00 | 74 | 1009.4 |
| 20260506131833 | 66 | 177 | 3.5 | 9.6 | 0.00 | 0.00 | 0.00 | 75 | 1009.9 |
| 20260506130319 | 65 | 187 | 4.3 | 12.2 | 0.00 | 0.00 | 0.00 | 75 | 1009.9 |
| 20260506124826 | 65 | 112 | 5.2 | 10.4 | 0.00 | 0.00 | 0.00 | 76 | 1009.9 |
| 20260506123322 | 65 | 251 | 3.5 | 11.3 | 0.00 | 0.00 | 0.00 | 76 | 1009.8 |
| 20260506121816 | 64 | 192 | 2.6 | 7.0 | 0.00 | 0.00 | 0.00 | 78 | 1009.7 |
| 20260506120328 | 64 | 209 | 3.5 | 9.6 | 0.00 | 0.00 | 0.00 | 78 | 1009.9 |
| 20260506114820 | 63 | 229 | 3.5 | 10.4 | 0.00 | 0.00 | 0.00 | 79 | 1010.1 |
| 20260506113322 | 62 | 190 | 3.5 | 9.6 | 0.00 | 0.00 | 0.00 | 79 | 1010.3 |
| 20260506111827 | 62 | 93 | 3.5 | 8.7 | 0.00 | 0.00 | 0.00 | 80 | 1010.4 |
| 20260506110329 | 62 | 185 | 1.7 | 7.8 | 0.00 | 0.00 | 0.00 | 80 | 1010.2 |
| 20260506104824 | 61 | 198 | 2.6 | 5.2 | 0.00 | 0.00 | 0.00 | 81 | 1010.3 |
| 20260506103329 | 61 | 219 | 2.6 | 7.0 | 0.00 | 0.00 | 0.00 | 81 | 1010.3 |
| 20260506101824 | 61 | 141 | 1.7 | 7.8 | 0.00 | 0.00 | 0.00 | 80 | 1010.0 |
| 20260506100319 | 61 | 162 | 3.5 | 7.8 | 0.00 | 0.00 | 0.00 | 80 | 1010.1 |
| 20260506094834 | 61 | 236 | 3.5 | 8.7 | 0.00 | 0.00 | 0.00 | 79 | 1010.0 |
| 20260506093324 | 61 | 214 | 3.5 | 7.8 | 0.00 | 0.00 | 0.00 | 79 | 1010.0 |
| 20260506091831 | 61 | 129 | 2.6 | 7.8 | 0.00 | 0.00 | 0.00 | 79 | 1010.1 |
| 20260506090345 | 61 | 212 | 3.5 | 9.6 | 0.00 | 0.00 | 0.00 | 78 | 1010.1 |
| 20260506084852 | 62 | 236 | 3.5 | 8.7 | 0.00 | 0.00 | 0.00 | 77 | 1010.0 |
| 20260506083327 | 62 | 205 | 5.2 | 8.7 | 0.00 | 0.00 | 0.00 | 77 | 1010.1 |
| 20260506081822 | 62 | 101 | 3.5 | 10.4 | 0.00 | 0.00 | 0.00 | 76 | 1010.1 |
| 20260506080318 | 63 | 216 | 4.3 | 8.7 | 0.00 | 0.00 | 0.00 | 75 | 1010.1 |
| 20260506073321 | 63 | 201 | 4.3 | 7.8 | 0.00 | 0.00 | 0.00 | 74 | 1009.9 |
| 20260506071817 | 63 | 264 | 3.5 | 11.3 | 0.00 | 0.00 | 0.00 | 73 | 1009.9 |
| 20260506070327 | 64 | 129 | 3.5 | 8.7 | 0.00 | 0.00 | 0.00 | 72 | 1009.7 |
| 20260506061820 | 65 | 205 | 4.3 | 11.3 | 0.00 | 0.00 | 0.00 | 68 | 1009.4 |